Date,TemperatureHighF,TemperatureAvgF,TemperatureLowF,DewpointHighF,DewpointAvgF,DewpointLowF,HumidityHigh,HumidityAvg,HumidityLow,PressureMaxIn,PressureMinIn,WindSpeedMaxMPH,WindSpeedAvgMPH,GustSpeedMaxMPH,PrecipitationSumIn
2013-11-1,87.4,71.0,52.5,87.1,70.8,52.2,99,99,99,29.64,29.59,9,1,9,0.01
2013-11-2,62.1,52.4,43.3,61.8,52.2,43.1,99,99,99,29.40,29.29,5,2,5,0.00
2013-11-3,62.4,46.8,34.9,62.1,46.5,34.6,99,99,99,29.78,29.57,9,2,9,0.00
2013-11-4,71.8,52.9,32.7,71.5,52.6,32.5,99,99,99,29.91,29.83,8,4,8,0.00
2013-11-5,76.8,55.4,41.7,76.6,55.1,41.5,99,99,99,29.94,29.80,5,1,7,0.00
2013-11-6,78.6,66.9,50.5,78.4,66.6,50.3,99,99,99,29.77,29.55,19,8,21,0.00
2013-11-7,64.9,52.9,43.0,64.7,52.6,42.7,99,99,87,29.75,29.51,11,4,17,0.00
2013-11-8,58.6,41.0,29.7,58.4,40.7,29.4,99,99,99,29.89,29.78,14,2,14,0.00
2013-11-9,56.1,43.9,28.0,55.9,43.6,27.8,99,99,99,29.85,29.73,11,3,11,0.00
2013-11-10,73.9,55.7,36.9,65.4,38.9,22.9,99,62,20,29.83,29.72,8,2,8,0.00
2013-11-11,67.8,50.8,29.5,67.5,37.6,24.1,99,66,30,29.84,29.67,8,2,8,0.00
2013-11-12,51.6,43.2,30.4,51.4,40.0,17.1,99,90,46,30.03,29.66,14,6,16,0.00
2013-11-13,47.3,32.5,24.3,47.0,29.9,16.4,99,91,60,30.17,30.01,14,5,15,0.00
2013-11-14,64.8,45.5,19.2,64.3,44.7,19.0,99,97,68,30.03,29.83,9,2,11,0.00
2013-11-15,49.5,43.9,35.6,49.2,42.2,28.0,99,95,48,29.84,29.69,11,2,11,0.00
2013-11-16,70.5,57.4,43.0,60.6,54.8,42.7,99,92,69,29.75,29.60,17,4,17,0.87
2013-11-17,70.0,65.6,62.6,69.0,62.8,59.2,99,91,74,29.61,29.32,18,10,21,0.66
2013-11-18,69.3,57.6,47.1,69.0,43.5,31.1,99,63,30,29.63,29.33,15,4,19,0.20
2013-11-19,55.9,46.4,38.5,34.2,28.0,22.0,80,50,27,29.72,29.62,17,6,17,0.00
2013-11-20,66.9,50.8,31.5,37.8,27.9,15.3,99,49,15,29.83,29.68,10,3,11,0.00
2013-11-21,66.2,52.8,39.6,54.2,42.7,32.2,99,70,44,29.87,29.77,11,3,11,0.00
2013-11-22,60.1,56.4,52.0,59.8,56.1,51.7,99,99,98,29.81,29.68,10,4,10,0.13
2013-11-23,53.1,45.1,35.6,52.4,37.1,18.0,99,76,47,29.87,29.68,14,5,14,0.05
2013-11-24,40.1,30.0,23.2,15.8,6.8,-2.5,65,39,16,30.08,29.93,18,6,21,0.05
2013-11-25,39.2,31.5,25.0,20.2,11.4,5.6,60,44,28,30.00,29.81,6,2,6,0.00
2013-11-26,42.3,37.8,32.2,42.0,37.6,31.9,99,99,99,29.73,29.29,11,2,11,1.69
2013-11-27,36.0,31.2,25.5,35.7,25.7,14.9,99,81,55,29.83,29.35,15,4,18,0.08
2013-11-28,47.3,30.0,17.4,24.8,18.4,8.3,99,67,20,30.01,29.87,7,1,9,0.08
2013-11-29,54.5,37.2,21.4,36.3,20.8,9.9,99,62,17,30.11,30.00,8,2,8,0.08
2013-11-30,57.9,37.4,23.9,41.0,26.6,20.9,99,73,24,30.08,29.84,8,2,11,0.08